Tracking 30701 objects as of 14-Jun-2025
HD Live streaming from Space Station
objects crossing your sky now

STARLINK-4778

Track STARLINK-4778 now!
10-day predictions
STARLINK-4778 is classified as:


NORAD ID: 53836
Int'l Code: 2022-114U
Perigee: 545.7 km
Apogee: 548.0 km
Inclination: 53.2 °
Period: 95.4 minutes
Semi major axis: 6917 km
RCS: Unknown
Launch date: September 19, 2022
Source: United States (US)
Launch site: AIR FORCE EASTERN TEST RANGE (AFETR)
Your satellite tracking list
Your tracking list is empty




NASA's NSSDC Master Catalog

Two Line Element Set (TLE):
1 53836U 22114U   25164.98654932 -.00000249  00000-0  24763-5 0  9992
2 53836  53.2161  60.5748 0001598  96.4956 263.6218 15.08849227152403
Source of the keplerian elements: AFSPC